Location: Bismarck
(46.7731°N, 100.8200°W)
Time: 00:53:55
(UTC-05:00)

Landsat 7 - Visible Passes

Search period start: 28 May 2016 00:00
Search period end: 07 June 2016 00:00
Orbit: 701 x 704 km, 98.2° (Epoch: 27 May)

Date Brightness Start Highest point End Pass type
(mag) Time Alt. Az. Time Alt. Az. Time Alt. Az.
28 May 6.1 00:45:23 10° SW 00:48:02 15° W 00:50:47 10° NW visible
28 May 5.3 22:11:26 10° ESE 22:15:09 23° ENE 22:18:53 10° NNE visible
28 May 4.5 23:49:43 21° SSW 23:52:36 48° W 23:57:13 10° NNW visible
29 May 4.2 22:54:04 17° SE 22:57:37 53° ENE 23:02:16 10° N visible
30 May 5.8 00:32:57 13° SW 00:35:41 20° W 00:39:08 10° NW visible
30 May 4.1 23:37:17 21° S 23:40:21 63° WSW 23:45:06 10° NNW visible
31 May 4.5 22:41:38 13° SE 22:45:28 41° ENE 22:49:56 10° N visible
01 Jun 5.5 00:20:31 15° SW 00:23:21 25° W 00:27:18 10° NW visible
01 Jun 3.8 23:24:51 20° S 23:28:08 81° WSW 23:32:55 10° NNW visible
02 Jun 4.9 22:29:12 10° SE 22:33:20 32° ENE 22:37:34 10° N visible
03 Jun 5.1 00:08:05 17° SSW 00:11:03 32° W 00:15:20 10° NNW visible
03 Jun 3.8 23:12:26 18° SSE 23:15:55 78° ENE 23:20:42 10° N visible
04 Jun 6.2 00:51:59 10° WSW 00:54:14 13° W 00:56:32 10° WNW visible
04 Jun 5.2 22:17:20 10° ESE 22:21:14 26° ENE 22:25:09 10° N visible
04 Jun 4.7 23:55:39 18° SSW 23:58:46 42° W 00:03:18 10° NNW visible
05 Jun 4.0 23:00:01 16° SSE 23:03:44 60° ENE 23:08:26 10° N visible
06 Jun 6.0 00:38:53 10° SW 00:41:53 17° W 00:45:02 10° NW visible
06 Jun 5.5 22:05:39 10° ESE 22:09:08 21° ENE 22:12:38 10° NNE visible
06 Jun 4.3 23:43:15 19° S 23:46:30 55° W 23:51:11 10° NNW visible
